FW4158 Weather Reports


Display with metric or nautical units.
time (UTC)temp
F
wind
direction
speed
MPH
gust
MPH
rain 1hr
in
rain 24hr
in
rain mn
in
humidity
%
barometer
mb
20260506161049 0 99 7.0 7.0 0.00 0.00 0.00 1014.4
20260506160532 0 99 7.0 9.0 0.00 0.00 0.00 1014.4
20260506160029 0 97 7.0 11.0 0.00 0.00 0.00 1014.4
20260506155459 0 91 8.0 11.0 0.00 0.00 0.00 1014.4
20260506154930 0 98 8.0 11.0 0.00 0.00 0.00 1014.4
20260506154404 0 98 8.0 11.0 0.00 0.00 0.00 1014.4
20260506153354 0 98 8.0 9.0 0.00 0.00 0.00 1014.5
20260506152839 0 96 8.0 10.0 0.00 0.00 0.00 1014.5
20260506152333 0 96 8.0 12.0 0.00 0.00 0.00 1014.5
20260506151741 0 104 8.0 12.0 0.00 0.00 0.00 1014.5
20260506151239 0 91 8.0 9.0 0.00 0.00 0.00 1014.5
20260506150228 0 97 7.0 10.0 0.00 0.00 0.00 1014.5
20260506145727 0 74 8.0 9.0 0.00 0.00 0.00 1014.5
20260506144643 0 71 8.0 10.0 0.00 0.00 0.00 1014.6
20260506144106 0 100 8.0 11.0 0.00 0.00 0.00 1014.6
20260506143606 0 81 8.0 12.0 0.00 0.00 0.00 1014.6
20260506143052 0 88 8.0 12.0 0.00 0.00 0.00 1014.5
20260506142552 0 69 8.0 10.0 0.00 0.00 0.00 1014.5
20260506142050 0 98 8.0 10.0 0.00 0.00 0.00 1014.5
20260506141550 0 89 8.0 9.0 0.00 0.00 0.00 1014.6
20260506140457 0 94 8.0 11.0 0.00 0.00 0.00 1014.6
20260506135953 0 91 8.0 11.0 0.00 0.00 0.00 1014.8
20260506135451 0 106 8.0 10.0 0.00 0.00 0.00 1014.8
20260506134950 0 98 9.0 10.0 0.00 0.00 0.00 1014.8
20260506134441 0 0.0 0.0 0.00 0.00 0.00 1014.7
20260506133400 0 0.0 0.0 0.00 0.00 0.00 1014.8
20260506132826 0 0.0 0.0 0.00 0.00 0.00 1014.8
20260506132246 0 96 9.0 11.0 0.00 0.00 0.00 1014.8
20260506131706 0 96 9.0 11.0 0.00 0.00 0.00 1014.8
20260506130637 0 96 9.0 11.0 0.00 0.00 0.00 1014.8
20260506130137 0 92 9.0 9.0 0.00 0.00 0.00 1014.7
20260506125615 0 90 9.0 10.0 0.00 0.00 0.00 1014.7
20260506125057 0 92 9.0 11.0 0.00 0.00 0.00 1014.7
20260506124022 0 96 9.0 10.0 0.00 0.00 0.00 1014.8
20260506123509 0 88 9.0 9.0 0.00 0.00 0.00 1014.8
20260506122948 0 88 9.0 9.0 0.00 0.00 0.00 1014.9
20260506122446 0 88 9.0 11.0 0.00 0.00 0.00 1014.9
20260506121937 0 104 9.0 11.0 0.00 0.00 0.00 1015.0
20260506121415 0 63 9.0 11.0 0.00 0.00 0.00 1015.0
20260506120315 0 85 8.0 11.0 0.00 0.00 0.00 1015.1
20260506115748 0 109 9.0 11.0 0.00 0.00 0.00 1015.1
20260506115238 0 68 9.0 11.0 0.00 0.00 0.00 1015.1
20260506114734 0 91 9.0 11.0 0.00 0.00 0.00 1015.2
20260506114233 0 108 9.0 10.0 0.00 0.00 0.00 1015.2
20260506113652 0 86 9.0 11.0 0.00 0.00 0.00 1015.2
20260506113144 0 81 9.0 11.0 0.00 0.00 0.00 1015.2
20260506112643 0 0.0 0.0 0.00 0.00 0.00 1015.2
20260506112137 0 0.0 0.0 0.00 0.00 0.00 1015.2
20260506111619 0 100 8.0 9.0 0.00 0.00 0.00 1015.2
20260506111039 0 100 8.0 9.0 0.00 0.00 0.00 1015.2
20260506110459 0 100 8.0 9.0 0.00 0.00 0.00 1015.2
20260506105929 0 100 8.0 9.0 0.00 0.00 0.00 1015.2
20260506105427 0 92 8.0 10.0 0.00 0.00 0.00 1015.2
20260506104923 0 77 8.0 11.0 0.00 0.00 0.00 1015.1
20260506104403 0 83 8.0 11.0 0.00 0.00 0.00 1015.1
20260506103901 0 94 7.0 11.0 0.00 0.00 0.00 1015.1
20260506103343 0 83 7.0 10.0 0.00 0.00 0.00 1015.1
20260506102841 0 67 7.0 10.0 0.00 0.00 0.00 1015.1
20260506101838 0 103 6.0 10.0 0.00 0.00 0.00 1015.1
20260506100836 0 57 6.0 10.0 0.00 0.00 0.00 1015.1
20260506100334 0 83 6.0 9.0 0.00 0.00 0.00 1015.1
20260506095334 0 81 6.0 8.0 0.00 0.00 0.00 1015.1
20260506094835 0 54 6.0 9.0 0.00 0.00 0.00 1015.1
20260506094335 0 76 6.0 9.0 0.00 0.00 0.00 1015.1
20260506093337 0 83 6.0 8.0 0.00 0.00 0.00 1015.1
20260506092834 0 84 6.0 8.0 0.00 0.00 0.00 1015.1
20260506092336 0 84 6.0 8.0 0.00 0.00 0.00 1015.1
20260506091837 0 91 6.0 8.0 0.00 0.00 0.00 1015.1
20260506090836 0 76 6.0 9.0 0.00 0.00 0.00 1015.1
20260506090333 0 73 6.0 9.0 0.00 0.00 0.00 1015.1
20260506085833 0 71 7.0 9.0 0.00 0.00 0.00 1015.1
20260506085333 0 77 7.0 9.0 0.00 0.00 0.00 1015.1
20260506084334 0 77 7.0 9.0 0.00 0.00 0.00 1015.0
20260506083825 0 83 7.0 9.0 0.00 0.00 0.00 1015.0
20260506082827 0 69 6.0 10.0 0.00 0.00 0.00 1015.0
20260506082310 0 77 6.0 10.0 0.00 0.00 0.00 1015.0
20260506081812 0 61 5.0 9.0 0.00 0.00 0.00 1015.0
20260506081311 0 78 5.0 8.0 0.00 0.00 0.00 1015.0
20260506080808 0 80 5.0 6.0 0.00 0.00 0.00 1015.0
20260506080307 0 90 5.0 5.0 0.00 0.00 0.00 1015.0
20260506073058 0 52 6.0 7.0 0.00 0.00 0.00 1014.8
20260506072549 0 54 6.0 7.0 0.00 0.00 0.00 1014.8
20260506071958 0 81 6.0 7.0 0.00 0.00 0.00 1014.8
20260506071447 0 70 6.0 7.0 0.00 0.00 0.00 1014.7
20260506070938 0 66 6.0 7.0 0.00 0.00 0.00 1014.7
20260506070432 0 67 5.0 7.0 0.00 0.00 0.00 1014.6
20260506062321 0 0.0 0.0 0.00 0.00 0.00 1014.7
20260506061742 0 0.0 0.0 0.00 0.00 0.00 1014.7
20260506061224 0 0.0 0.0 0.00 0.00 0.00 1014.7
20260506060642 0 0.0 0.0 0.00 0.00 0.00 1014.7
20260506060122 0 0.0 0.0 0.00 0.00 0.00 1014.7
20260506051343 0 0.0 0.0 0.00 0.00 0.00 1014.5
20260506050835 0 0.0 0.0 0.00 0.00 0.00 1014.5
20260506050334 0 0.0 0.0 0.00 0.00 0.00 1014.5
20260506044822 0 0.0 0.0 0.00 0.00 0.00 1014.4
20260506044314 0 0.0 0.0 0.00 0.00 0.00 1014.4
20260506042035 0 0.0 0.0 0.00 0.00 0.00 1014.3
20260506041525 0 0.0 0.0 0.00 0.00 0.00 1014.2
20260506040945 0 0.0 0.0 0.00 0.00 0.00 1014.2
20260506040350 0 0.0 0.0 0.00 0.00 0.00 1014.1
20260506035228 0 0.0 0.0 0.00 0.00 0.00 1014.1
20260506034123 0 0.0 0.0 0.00 0.00 0.00 1014.0
20260506033544 0 0.0 0.0 0.00 0.00 0.00 1014.0
20260506033004 0 0.0 0.0 0.00 0.00 0.00 1014.0
20260506032423 0 0.0 0.0 0.00 0.00 0.00 1014.0
20260506031848 0 0.0 0.0 0.00 0.00 0.00 1013.8
20260506031310 0 0.0 0.0 0.00 0.00 0.00 1013.8
20260506030729 0 0.0 0.0 0.00 0.00 0.00 1013.8
20260506030155 0 0.0 0.0 0.00 0.00 0.00 1013.7
20260506025035 0 0.0 0.0 0.00 0.00 0.00 1013.7
20260506024523 0 0.0 0.0 0.00 0.00 0.00 1013.6
20260506024018 0 0.0 0.0 0.00 0.00 0.00 1013.6
20260506022318 0 0.0 0.0 0.00 0.00 0.00 1013.5
20260506021737 0 0.0 0.0 0.00 0.00 0.00 1013.5
20260506021144 0 0.0 0.0 0.00 0.00 0.00 1013.5
20260506020633 0 0.0 0.0 0.00 0.00 0.00 1013.5
20260506020113 0 0.0 0.0 0.00 0.00 0.00 1013.4
20260506015533 0 0.0 0.0 0.00 0.00 0.00 1013.4
20260506014953 0 0.0 0.0 0.00 0.00 0.00 1013.4
20260506014412 0 0.0 0.0 0.00 0.00 0.00 1013.4
20260506013253 0 0.0 0.0 0.00 0.00 0.00 1013.4
20260506012713 0 0.0 0.0 0.00 0.00 0.00 1013.4
20260506012132 0 0.0 0.0 0.00 0.00 0.00 1013.4
20260506011004 0 0.0 0.0 0.00 0.00 0.00 1013.5
20260506005846 0 0.0 0.0 0.00 0.00 0.00 1013.5
20260506004726 0 0.0 0.0 0.00 0.00 0.00 1013.5
20260506004148 0 0.0 0.0 0.00 0.00 0.00 1013.5
20260506003605 0 0.0 0.0 0.00 0.00 0.00 1013.5
20260506003059 0 0.0 0.0 0.00 0.00 0.00 1013.5
20260506002519 0 0.0 0.0 0.00 0.00 0.00 1013.5
20260506001927 0 0.0 0.0 0.00 0.00 0.00 1013.6
20260506001348 0 0.0 0.0 0.00 0.00 0.00 1013.6
20260506000309 0 0.0 0.0 0.00 0.00 0.00 1013.5
20260505235729 0 0.0 0.0 0.00 0.00 0.00 1013.5
20260505234603 0 0.0 0.0 0.00 0.00 0.00 1013.6
20260505234019 0 0.0 0.0 0.00 0.00 0.00 1013.6
20260505232901 0 0.0 0.0 0.00 0.00 0.00 1013.7
20260505231212 0 0.0 0.0 0.00 0.00 0.00 1013.9
20260505230632 0 0.0 0.0 0.00 0.00 0.00 1013.9
20260505230124 0 0.0 0.0 0.00 0.00 0.00 1014.0
20260505225616 0 0.0 0.0 0.00 0.00 0.00 1014.0
20260505225036 0 0.0 0.0 0.00 0.00 0.00 1014.0
20260505224519 0 0.0 0.0 0.00 0.00 0.00 1014.2
20260505223925 0 0.0 0.0 0.00 0.00 0.00 1014.2
20260505223354 0 0.0 0.0 0.00 0.00 0.00 1014.3
20260505222815 0 0.0 0.0 0.00 0.00 0.00 1014.3
20260505222306 0 0.0 0.0 0.00 0.00 0.00 1014.3
20260505221759 0 0.0 0.0 0.00 0.00 0.00 1014.3
20260505221249 0 0.0 0.0 0.00 0.00 0.00 1014.3
20260505220745 0 0.0 0.0 0.00 0.00 0.00 1014.3
20260505215735 0 0.0 0.0 0.00 0.00 0.00 1014.2
20260505215235 0 0.0 0.0 0.00 0.00 0.00 1014.2
20260505214711 0 0.0 0.0 0.00 0.00 0.00 1014.2
20260505214209 0 0.0 0.0 0.00 0.00 0.00 1014.2
20260505213613 0 0.0 0.0 0.00 0.00 0.00 1014.2
20260505213109 0 0.0 0.0 0.00 0.00 0.00 1014.2
20260505212605 0 0.0 0.0 0.00 0.00 0.00 1014.2
20260505212101 0 0.0 0.0 0.00 0.00 0.00 1014.2
20260505211521 0 0.0 0.0 0.00 0.00 0.00 1014.2
20260505210938 0 0.0 0.0 0.00 0.00 0.00 1014.2
20260505210430 0 0.0 0.0 0.00 0.00 0.00 1014.3
20260505205837 0 0.0 0.0 0.00 0.00 0.00 1014.3
20260505205333 0 0.0 0.0 0.00 0.00 0.00 1014.3
20260505204314 0 0.0 0.0 0.00 0.00 0.00 1014.3
20260505203722 0 0.0 0.0 0.00 0.00 0.00 1014.3
20260505202609 0 0.0 0.0 0.00 0.00 0.00 1014.2
20260505202056 0 0.0 0.0 0.00 0.00 0.00 1014.2
20260505200439 0 0.0 0.0 0.00 0.00 0.00 1014.2
20260505195847 0 0.0 0.0 0.00 0.00 0.00 1014.1
20260505194832 0 0.0 0.0 0.00 0.00 0.00 1014.0
20260505194323 0 0.0 0.0 0.00 0.00 0.00 1014.0
20260505193747 0 0.0 0.0 0.00 0.00 0.00 1014.0
20260505193208 0 0.0 0.0 0.00 0.00 0.00 1014.0
20260505192112 0 0.0 0.0 0.00 0.00 0.00 1014.0
20260505191540 0 0.0 0.0 0.00 0.00 0.00 1014.0
20260505190437 0 0.0 0.0 0.00 0.00 0.00 1013.9
20260505184733 0 0.0 0.0 0.00 0.00 0.00 1013.8
20260505184218 0 0.0 0.0 0.00 0.00 0.00 1013.8
20260505183634 0 0.0 0.0 0.00 0.00 0.00 1013.8
20260505183103 0 0.0 0.0 0.00 0.00 0.00 1013.7
20260505182551 0 0.0 0.0 0.00 0.00 0.00 1013.7
20260505182011 0 0.0 0.0 0.00 0.00 0.00 1013.7
20260505181505 0 0.0 0.0 0.00 0.00 0.00 1013.7
20260505180943 0 0.0 0.0 0.00 0.00 0.00 1013.7
20260505180436 0 0.0 0.0 0.00 0.00 0.00 1013.8
20260505175937 0 0.0 0.0 0.00 0.00 0.00 1013.8
20260505175437 0 0.0 0.0 0.00 0.00 0.00 1013.8
20260505174936 0 0.0 0.0 0.00 0.00 0.00 1013.8
20260505174434 0 0.0 0.0 0.00 0.00 0.00 1013.8
20260505173925 0 0.0 0.0 0.00 0.00 0.00 1013.8
20260505173401 0 0.0 0.0 0.00 0.00 0.00 1013.8
20260505172806 0 0.0 0.0 0.00 0.00 0.00 1013.8
20260505172259 0 0.0 0.0 0.00 0.00 0.00 1013.8
20260505171750 0 0.0 0.0 0.00 0.00 0.00 1013.8
20260505171242 0 302 0.0 0.0 0.00 0.00 0.00 1013.8
20260505170649 0 302 0.0 0.0 0.00 0.00 0.00 1013.8
20260505170127 0 302 0.0 0.0 0.00 0.00 0.00 1013.9
20260505165618 0 302 0.0 0.0 0.00 0.00 0.00 1013.9
20260505165108 0 302 0.0 0.0 0.00 0.00 0.00 1013.9
20260505164603 0 302 0.0 0.0 0.00 0.00 0.00 1013.8
20260505163505 0 295 3.0 4.0 0.00 0.00 0.00 1013.8
20260505163004 0 335 3.0 5.0 0.00 0.00 0.00 1013.8
20260505162500 0 327 4.0 5.0 0.00 0.00 0.00 1013.8